This demonstration page uses our WeatherBlox Daily Observations layout. Learn more.

Left ArrowRight Arrow

36.17497, -115.13722

Hourly Observations for December 21, 2020

Temp ( °F °C ) Dew Point ( °F °C ) Humidity (%) Winds ( mph kmh ) Pressure ( in mb ) Visibility ( mi km ) Precip ( " mm )
12:53 am 00:53 Clear 48 8.9 19 -7.2 32 32 W 7 11 30.17 1022 10 16.0934 0 0
1:53 am 01:53 Clear 50 10 17 -8.3 27 27 N 7 11 30.17 1022 10 16.0934 0 0
2:53 am 02:53 Clear 45 7.2 20 -6.7 37 37 NW 3 6 30.18 1022 10 16.0934 0 0
3:53 am 03:53 Clear 44 6.7 20 -6.7 38 38 W 6 9 30.17 1022 10 16.0934 0 0
4:53 am 04:53 Clear 42 5.6 20 -6.7 41 41 W 3 6 30.17 1022 10 16.0934 0 0
5:53 am 05:53 Clear 42 5.6 21 -6.1 43 43 WNW 5 7 30.18 1022 10 16.0934 0 0
6:53 am 06:53 Sunny 44 6.7 22 -5.6 41 41 WNW 3 6 30.19 1022 10 16.0934 0 0
7:53 am 07:53 Sunny 45 7.2 23 -5 42 42 ESE 3 6 30.19 1023 10 16.0934 0 0
8:53 am 08:53 Sunny 52 11.1 23 -5 32 32 Calm 30.19 1022 10 16.0934 0 0
9:53 am 09:53 Sunny 56 13.3 23 -5 28 28 Calm 30.18 1022 10 16.0934 0 0
10:53 am 10:53 Sunny 60 15.6 24 -4.4 25 25 Calm 30.15 1021 10 16.0934 0 0
11:53 am 11:53 Sunny 65 18.3 24 -4.4 21 21 Calm 30.09 1019 10 16.0934 0 0
12:53 pm 12:53 Sunny 67 19.4 25 -3.9 20 20 ESE 3 6 30.05 1018 10 16.0934 0 0
1:53 pm 13:53 Sunny 67 19.4 26 -3.3 21 21 SSE 5 7 30.02 1017 10 16.0934 0 0
2:53 pm 14:53 Sunny 67 19.4 27 -2.8 22 22 SSE 5 7 30.02 1017 10 16.0934 0 0
3:53 pm 15:53 Sunny 67 19.4 28 -2.2 23 23 S 5 7 30.01 1016 10 16.0934 0 0
4:53 pm 16:53 Clear 62 16.7 28 -2.2 28 28 Calm 30.01 1016 10 16.0934 0 0
5:53 pm 17:53 Clear 59 15 29 -1.7 32 32 Calm 30.02 1017 10 16.0934 0 0
6:53 pm 18:53 Clear 57 13.9 30 -1.1 36 36 N 5 7 30.03 1017 10 16.0934 0 0
7:53 pm 19:53 Clear 53 11.7 29 -1.7 40 40 WNW 6 9 30.03 1017 10 16.0934 0 0
8:53 pm 20:53 Clear 50 10 29 -1.7 44 44 WNW 5 7 30.02 1017 10 16.0934 0 0
9:53 pm 21:53 Clear 49 9.4 29 -1.7 46 46 W 6 9 30.01 1016 10 16.0934 0 0
10:53 pm 22:53 Clear 47 8.3 28 -2.2 48 48 WNW 7 11 30.01 1016 10 16.0934 0 0
11:53 pm 23:53 Clear 47 8.3 28 -2.2 48 48 NW 5 7 29.99 1016 10 16.0934 0 0

Powered by AerisWeather